Regional Weather Roundup
Issued by NWS Jackson, KY

Home | Current Version | Previous Version | Text Only | Print | Product List | Glossary Off
Versions: 1 2 3 4 5 6 7 8 9 10 11 12 13 14 15 16 17 18 19 20 21 22 23 24 25 26 27 28 29 30 31 32 33 34 35 36 37 38 39 40 41 42 43 44 45 46 47 48 49 50

000
ASUS43 KJKL 290310
RWRJKL

EAST KENTUCKY HOURLY WEATHER ROUNDUP
NATIONAL WEATHER SERVICE JACKSON KY
1100 PM EDT TUE JUL 28 2015

NOTE: "FAIR" INDICATES FEW OR NO CLOUDS BELOW 12,000 FEET WITH
NO SIGNIFICANT WEATHER AND/OR OBSTRUCTIONS TO VISIBILITY.

* THESE REPORTS ARE NOT UNDER NWS QUALITY CONTROL AND MAY NOT
  REPORT WEATHER SUCH AS PRECIPITATION AND FOG.

KYZ079-080-083-085-087-088-110-112-115-119-120-290400
...EASTERN KENTUCKY...

CITY           SKY/WX    TMP DP  RH WIND       PRES   REMARKS
JACKSON        PTCLDY    76  73  91 CALM      30.02R FOG
LONDON         CLOUDY    75  68  78 CALM      30.02R
SOMERSET*      PTCLDY    72  72 100 CALM      30.02R
MONTICELLO*    CLOUDY    75  73  94 CALM      30.04R FOG
MIDDLESBORO*   CLOUDY    75  73  94 CALM      30.04R
HAZARD APT*    CLEAR     75  73  94 CALM      30.02R
BLACK MTN*       N/A     68  68 100 CALM        N/A
PIKEVILLE APT* CLEAR     77  73  88 SW3       30.02S
BIG SANDY*     CLEAR     78  76  94 CALM      30.01R
MOREHEAD APT*  PTCLDY    75  70  83 CALM      30.02R
$$

KYZ035-036-041-042-044-050-067-078-099-290400
...CENTRAL KENTUCKY...

CITY           SKY/WX    TMP DP  RH WIND       PRES   REMARKS
MT STERLING*   CLEAR     72  72 100 W3        30.03R
FLEMING/MASON* CLEAR    N/A N/A N/A CALM      30.02R
DANVILLE*      PTCLDY    72  72 100 CALM      30.02R
RICHMOND*      PTCLDY    73  68  83 CALM      30.01R
LEXINGTON      CLEAR     75  72  90 W5        30.01R
FRANKFORT      CLEAR     76  73  91 SE3       30.00R
$$

KYZ091>093-OHZ055-061-077-WVZ005-015-034-035-042-290400
...SOUTHERN OHIO/WEST VIRGINIA...

CITY           SKY/WX    TMP DP  RH WIND       PRES   REMARKS
COVINGTON      MOCLDY    81  73  76 CALM      30.01R
COLUMBUS       PTCLDY    79  68  69 CALM      29.98R
DAYTON         PTCLDY    80  71  74 CALM      30.02R
WILMINGTON     PTCLDY    76  72  87 CALM      30.01R
HUNTINGTON     PTCLDY    77  73  87 CALM      29.98R
CHARLESTON     PTCLDY    77  73  87 CALM      29.99R
PINEVILLE*     CLEAR     72  72 100 MISG      30.09F FOG
BECKLEY        PTCLDY    72  68  87 SE3       30.09R
BLUEFIELD      MOCLDY    77  66  68 CALM      30.12R
$$

VAZ002-007-008-TNZ017-027-036-066-071-290400
...SOUTHWEST VIRGINIA/EAST TENNESSEE...

CITY           SKY/WX    TMP DP  RH WIND       PRES   REMARKS
WISE*          CLEAR     73  73 100 CALM      30.12S
ABINGDON*      MOCLDY    74  71  90 CALM      30.09R
BRISTOL        PTCLDY    74  70  87 CALM      30.04S
KNOXVILLE      MOCLDY    78  72  81 SW7       30.02R
OAK RIDGE      MOCLDY    77  72  84 CALM      30.03R
CROSSVILLE     MOCLDY    73  69  87 CALM      30.08S
NASHVILLE      LGT RAIN  76  76 100 NW5       30.02S
$$

...KEY TO REMARKS...
VSB - VISIBILITY IN MILES
WCI - WIND CHILL INDEX
HX  - HEAT INDEX

$$



USA.gov is the U.S. government's official web portal to all federal, state and local government web resources and services.